Flag for Germany Weather past 2 weeks in Bünde, North Rhine-Westphalia, Germany

Now
75 °F

Partly sunny.


Feels Like: 77 °F
Forecast: 60 / 76 °F
Wind: 7 mph from East

Location: Bueckeburg

Current Time: Jul 29, 2014 at 11:03:32 AM

Latest Report: Jul 29, 2014 at 10:20 AM


Visibility: N/A

Pressure: 29.86 "Hg

Humidity: 69%

Dew point: 64 °F

Location of BündeLocation

Historic Weather in Bünde — Graph

°F

Bünde temperature yesterday

Maximum temperature yesterday: 81 °F (at 4:20 PM)
Minimum temperature yesterday: 59 °F (at 6:20 AM)
Average temperature yesterday: 71 °F

Past Weeks' High & Low Weather Summary

 TemperatureHumidityPressure
High91 °F (Jul 19, 4:20 PM)100% (Jul 21, 7:20 AM)30.18 "Hg (Jul 21, 7:20 AM)
Low57 °F (Jul 15, 2:20 AM)28% (Jul 19, 4:20 PM)29.77 "Hg (Jul 20, 6:20 PM)
Average70 °F71%29.99 "Hg
* Reported Jul 14 9:02 AM — Jul 29 9:20 AM, Bünde, Weather by CustomWeather, © 2014

Note: Actual official high and low records may vary slightly from our data, if they occured in-between our weather recording intervals... More about our weather records

Advertising

Bünde weather history for previous 24 hours

 ConditionsComfort  
Time TempWeatherWind HumidityBarometerVisibility
9:20 AM
Jul 29
66 °FPartly sunny.2 mph88%29.83 "HgN/A
8:20 AM63 °FPartly sunny.2 mph94%29.83 "Hg5 mi
7:20 AM63 °FPartly sunny.2 mph94%29.83 "Hg4 mi
6:20 AM63 °FFog.2 mph94%29.83 "Hg4 mi
5:20 AM63 °FFog.1 mph94%29.83 "Hg5 mi
4:20 AM63 °FPassing clouds.2 mph94%29.83 "HgN/A
3:20 AM63 °FPassing clouds.2 mph94%29.86 "HgN/A
2:20 AM64 °FPassing clouds.1 mph94%29.86 "HgN/A
1:20 AM68 °FPassing clouds.3 mph83%29.86 "HgN/A
12:20 AM68 °FPassing clouds.No wind88%29.86 "HgN/A
11:20 PM
Jul 28
70 °FPassing clouds.2 mph78%29.86 "HgN/A
10:20 PM73 °FBroken clouds.3 mph69%29.86 "HgN/A
9:20 PM75 °FPartly sunny.3 mph65%29.86 "HgN/A
8:20 PM79 °FPartly sunny.8 mph58%29.83 "HgN/A
7:20 PM81 °FScattered clouds.9 mph54%29.83 "HgN/A
6:20 PM81 °FScattered clouds.10 mph54%29.83 "HgN/A
5:20 PM81 °FPassing clouds.13 mph54%29.83 "HgN/A
4:20 PM81 °FPassing clouds.10 mph54%29.86 "HgN/A
3:20 PM79 °FPassing clouds.8 mph58%29.86 "HgN/A
2:20 PM79 °FScattered clouds.10 mph61%29.89 "HgN/A
1:20 PM77 °FScattered clouds.10 mph65%29.89 "HgN/A
12:20 PM75 °FPassing clouds.9 mph69%29.92 "HgN/A
11:20 AM73 °FPassing clouds.8 mph74%29.92 "HgN/A
Weather by CustomWeather, © 2014

See weather overviewHow to use our weather pages